TimeCST,TemperatureF,Dew PointF,Humidity,Sea Level PressureIn,VisibilityMPH,Wind Direction,Wind SpeedMPH,Gust SpeedMPH,PrecipitationIn,Events,Conditions,WindDirDegrees,DateUTC
12:15 AM,60.8,46.4,59,29.88,10.0,Calm,Calm,-,N/A,,Mostly Cloudy,0,2012-12-08 06:15:00
12:35 AM,60.8,46.4,59,29.88,10.0,WNW,4.6,-,N/A,,Mostly Cloudy,300,2012-12-08 06:35:00
12:55 AM,60.8,46.4,59,29.87,10.0,WNW,3.5,-,N/A,,Mostly Cloudy,300,2012-12-08 06:55:00
1:15 AM,60.8,46.4,59,29.87,10.0,WNW,3.5,-,N/A,,Overcast,300,2012-12-08 07:15:00
1:35 AM,60.8,46.4,59,29.86,10.0,Calm,Calm,-,N/A,,Overcast,0,2012-12-08 07:35:00
1:55 AM,59.0,46.4,63,29.87,10.0,Calm,Calm,-,N/A,,Scattered Clouds,0,2012-12-08 07:55:00
2:15 AM,59.0,46.4,63,29.87,7.0,NW,3.5,-,N/A,,Mostly Cloudy,310,2012-12-08 08:15:00
2:35 AM,59.0,46.4,63,29.86,10.0,Calm,Calm,-,N/A,,Overcast,0,2012-12-08 08:35:00
2:55 AM,59.0,46.4,63,29.87,10.0,Calm,Calm,-,N/A,,Overcast,0,2012-12-08 08:55:00
3:15 AM,57.2,46.4,67,29.86,7.0,Calm,Calm,-,N/A,,Mostly Cloudy,0,2012-12-08 09:15:00
3:35 AM,57.2,46.4,67,29.86,10.0,Calm,Calm,-,N/A,,Mostly Cloudy,0,2012-12-08 09:35:00
3:55 AM,55.4,46.4,72,29.87,10.0,WNW,3.5,-,N/A,,Scattered Clouds,300,2012-12-08 09:55:00
4:15 AM,55.4,48.2,77,29.86,10.0,Calm,Calm,-,N/A,,Mostly Cloudy,0,2012-12-08 10:15:00
4:35 AM,55.4,48.2,77,29.87,10.0,Calm,Calm,-,N/A,,Overcast,0,2012-12-08 10:35:00
4:55 AM,55.4,48.2,77,29.86,7.0,NNW,3.5,-,N/A,,Overcast,340,2012-12-08 10:55:00
5:15 AM,55.4,48.2,77,29.87,10.0,NW,3.5,-,N/A,,Overcast,310,2012-12-08 11:15:00
5:35 AM,55.4,48.2,77,29.88,10.0,Calm,Calm,-,N/A,,Overcast,0,2012-12-08 11:35:00
5:55 AM,55.4,48.2,77,29.89,7.0,Calm,Calm,-,N/A,,Mostly Cloudy,0,2012-12-08 11:55:00
6:15 AM,55.4,48.2,77,29.89,10.0,Calm,Calm,-,N/A,,Overcast,0,2012-12-08 12:15:00
6:35 AM,53.6,48.2,82,29.90,7.0,WNW,3.5,-,N/A,,Overcast,290,2012-12-08 12:35:00
6:55 AM,53.6,48.2,82,29.90,7.0,WNW,3.5,-,N/A,,Overcast,300,2012-12-08 12:55:00
7:15 AM,53.6,48.2,82,29.91,7.0,WNW,3.5,-,N/A,,Overcast,290,2012-12-08 13:15:00
7:35 AM,53.6,48.2,82,29.91,7.0,WNW,3.5,-,N/A,,Mostly Cloudy,300,2012-12-08 13:35:00
7:55 AM,53.6,50.0,88,29.91,5.0,Calm,Calm,-,N/A,,Mostly Cloudy,0,2012-12-08 13:55:00
8:15 AM,55.4,50.0,82,29.91,7.0,NW,3.5,-,N/A,,Scattered Clouds,310,2012-12-08 14:15:00
8:35 AM,55.4,50.0,82,29.91,5.0,Calm,Calm,-,N/A,,Scattered Clouds,0,2012-12-08 14:35:00
8:55 AM,57.2,50.0,77,29.92,7.0,WNW,4.6,-,N/A,,Mostly Cloudy,290,2012-12-08 14:55:00
9:15 AM,57.2,50.0,77,29.92,7.0,NNW,3.5,-,N/A,,Mostly Cloudy,340,2012-12-08 15:15:00
9:35 AM,59.0,50.0,72,29.93,7.0,Calm,Calm,-,N/A,,Overcast,0,2012-12-08 15:35:00
9:55 AM,59.0,50.0,72,29.93,7.0,Calm,Calm,-,N/A,,Overcast,0,2012-12-08 15:55:00
10:15 AM,59.0,50.0,72,29.92,7.0,Calm,Calm,-,N/A,,Mostly Cloudy,0,2012-12-08 16:15:00
10:35 AM,59.0,50.0,72,29.92,7.0,Calm,Calm,-,N/A,,Mostly Cloudy,0,2012-12-08 16:35:00
10:55 AM,60.8,50.0,68,29.92,10.0,Calm,Calm,-,N/A,,Mostly Cloudy,0,2012-12-08 16:55:00
11:15 AM,62.6,50.0,63,29.90,7.0,Calm,Calm,-,N/A,,Mostly Cloudy,0,2012-12-08 17:15:00
11:35 AM,62.6,50.0,63,29.90,7.0,Calm,Calm,-,N/A,,Scattered Clouds,0,2012-12-08 17:35:00
11:55 AM,64.4,48.2,56,29.88,10.0,SSE,4.6,-,N/A,,Scattered Clouds,160,2012-12-08 17:55:00
12:15 PM,68.0,46.4,46,29.87,7.0,SE,3.5,-,N/A,,Mostly Cloudy,130,2012-12-08 18:15:00
12:35 PM,68.0,46.4,46,29.86,10.0,South,4.6,-,N/A,,Scattered Clouds,180,2012-12-08 18:35:00
12:55 PM,68.0,48.2,49,29.86,7.0,South,4.6,-,N/A,,Scattered Clouds,170,2012-12-08 18:55:00
1:15 PM,69.8,48.2,46,29.85,10.0,SE,5.8,-,N/A,,Mostly Cloudy,140,2012-12-08 19:15:00
1:35 PM,68.0,50.0,52,29.84,7.0,Calm,Calm,-,N/A,,Scattered Clouds,0,2012-12-08 19:35:00
1:55 PM,68.0,50.0,52,29.83,10.0,SSE,3.5,-,N/A,,Scattered Clouds,160,2012-12-08 19:55:00
2:15 PM,68.0,51.8,56,29.83,10.0,South,4.6,-,N/A,,Mostly Cloudy,170,2012-12-08 20:15:00
2:35 PM,68.0,51.8,56,29.83,7.0,South,4.6,-,N/A,,Overcast,170,2012-12-08 20:35:00
2:55 PM,68.0,51.8,56,29.82,7.0,SE,5.8,-,N/A,,Overcast,140,2012-12-08 20:55:00
3:15 PM,68.0,51.8,56,29.82,7.0,SSE,6.9,-,N/A,,Overcast,160,2012-12-08 21:15:00
3:35 PM,66.2,53.6,64,29.82,10.0,SSE,5.8,-,N/A,,Mostly Cloudy,150,2012-12-08 21:35:00
3:55 PM,66.2,53.6,64,29.82,10.0,SSE,5.8,-,N/A,,Mostly Cloudy,160,2012-12-08 21:55:00
4:15 PM,66.2,53.6,64,29.81,7.0,SSE,3.5,-,N/A,,Scattered Clouds,150,2012-12-08 22:15:00
4:35 PM,66.2,53.6,64,29.82,7.0,SSE,3.5,-,N/A,,Scattered Clouds,150,2012-12-08 22:35:00
4:55 PM,64.4,53.6,68,29.82,7.0,Calm,Calm,-,N/A,,Scattered Clouds,0,2012-12-08 22:55:00
5:15 PM,64.4,55.4,73,29.82,10.0,Calm,Calm,-,N/A,,Scattered Clouds,0,2012-12-08 23:15:00
5:35 PM,64.4,55.4,73,29.82,10.0,Calm,Calm,-,N/A,,Scattered Clouds,0,2012-12-08 23:35:00
5:55 PM,64.4,55.4,73,29.83,10.0,Calm,Calm,-,N/A,,Mostly Cloudy,0,2012-12-08 23:55:00
6:15 PM,64.4,55.4,73,29.83,10.0,Calm,Calm,-,N/A,,Mostly Cloudy,0,2012-12-09 00:15:00
6:35 PM,64.4,55.4,73,29.83,10.0,Calm,Calm,-,N/A,,Scattered Clouds,0,2012-12-09 00:35:00
6:55 PM,64.4,55.4,73,29.83,7.0,SE,3.5,-,N/A,,Scattered Clouds,140,2012-12-09 00:55:00
7:15 PM,64.4,55.4,73,29.82,7.0,SE,4.6,-,N/A,,Scattered Clouds,130,2012-12-09 01:15:00
7:55 PM,62.6,57.2,82,29.82,10.0,SE,3.5,-,N/A,,Scattered Clouds,130,2012-12-09 01:55:00
8:15 PM,62.6,57.2,82,29.82,10.0,SE,3.5,-,N/A,,Scattered Clouds,140,2012-12-09 02:15:00
8:35 PM,64.4,57.2,77,29.82,10.0,SE,3.5,-,N/A,,Scattered Clouds,140,2012-12-09 02:35:00
8:55 PM,64.4,57.2,77,29.82,10.0,Calm,Calm,-,N/A,,Scattered Clouds,0,2012-12-09 02:55:00
9:15 PM,64.4,59.0,83,29.82,10.0,Calm,Calm,-,N/A,,Mostly Cloudy,0,2012-12-09 03:15:00
9:55 PM,62.6,57.2,82,29.82,10.0,SE,3.5,-,N/A,,Clear,130,2012-12-09 03:55:00
10:35 PM,62.6,59.0,88,29.83,7.0,SE,3.5,-,N/A,,Clear,140,2012-12-09 04:35:00
10:55 PM,62.6,59.0,88,29.82,7.0,Calm,Calm,-,N/A,,Scattered Clouds,0,2012-12-09 04:55:00
11:15 PM,62.6,59.0,88,29.82,7.0,ESE,3.5,-,N/A,,Scattered Clouds,120,2012-12-09 05:15:00
11:35 PM,62.6,59.0,88,29.81,5.0,SE,3.5,-,N/A,,Clear,130,2012-12-09 05:35:00
11:55 PM,62.6,59.0,88,29.81,5.0,SE,3.5,-,N/A,,Clear,140,2012-12-09 05:55:00